Time,TemperatureF,DewpointF,PressureIn,WindDirection,WindDirectionDegrees,WindSpeedMPH,WindSpeedGustMPH,Humidity,HourlyPrecipIn,Conditions,Clouds,dailyrainin,SolarRadiationWatts/m^2,SoftwareType,DateUTC
2013-03-26 00:12:00,6.0,3.0,-100.00,West,281,3.0,5.0,88,0.00,,,0.00,0.000000,,2013-03-26 08:12:00,
2013-03-26 00:22:00,6.0,3.0,-100.00,West,281,3.0,5.0,88,0.00,,,0.00,0.000000,,2013-03-26 08:22:00,
2013-03-26 00:32:00,6.0,3.0,-100.00,West,281,3.0,5.0,88,0.00,,,0.00,0.000000,,2013-03-26 08:32:00,
2013-03-26 00:42:00,6.0,3.0,-100.00,West,281,3.0,5.0,88,0.00,,,0.00,0.000000,,2013-03-26 08:42:00,
2013-03-26 00:51:00,6.0,3.0,-100.00,West,281,3.0,5.0,88,0.00,,,0.00,0.000000,,2013-03-26 08:51:00,
2013-03-26 01:22:00,5.0,2.0,-100.00,West,280,3.0,4.0,87,0.00,,,0.00,0.000000,,2013-03-26 09:22:00,
2013-03-26 01:32:00,5.0,2.0,-100.00,West,280,3.0,4.0,87,0.00,,,0.00,0.000000,,2013-03-26 09:32:00,
2013-03-26 01:42:00,5.0,2.0,-100.00,West,280,3.0,4.0,87,0.00,,,0.00,0.000000,,2013-03-26 09:42:00,
2013-03-26 01:52:00,5.0,2.0,-100.00,West,280,3.0,4.0,87,0.00,,,0.00,0.000000,,2013-03-26 09:52:00,
2013-03-26 02:12:00,6.0,3.0,-100.00,WNW,290,4.0,7.0,86,0.00,,,0.00,0.000000,,2013-03-26 10:12:00,
2013-03-26 02:22:00,6.0,3.0,-100.00,WNW,290,4.0,7.0,86,0.00,,,0.00,0.000000,,2013-03-26 10:22:00,
2013-03-26 02:32:00,6.0,3.0,-100.00,WNW,290,4.0,7.0,86,0.00,,,0.00,0.000000,,2013-03-26 10:32:00,
2013-03-26 02:42:00,6.0,3.0,-100.00,WNW,290,4.0,7.0,86,0.00,,,0.00,0.000000,,2013-03-26 10:42:00,
2013-03-26 02:52:00,6.0,3.0,-100.00,WNW,290,4.0,7.0,86,0.00,,,0.00,0.000000,,2013-03-26 10:52:00,
2013-03-26 03:12:00,6.0,2.0,-100.00,West,281,5.0,8.0,83,0.00,,,0.00,0.000000,,2013-03-26 11:12:00,
2013-03-26 03:22:00,6.0,2.0,-100.00,West,281,5.0,8.0,83,0.00,,,0.00,0.000000,,2013-03-26 11:22:00,
2013-03-26 03:32:00,6.0,2.0,-100.00,West,281,5.0,8.0,83,0.00,,,0.00,0.000000,,2013-03-26 11:32:00,
2013-03-26 03:42:00,6.0,2.0,-100.00,West,281,5.0,8.0,83,0.00,,,0.00,0.000000,,2013-03-26 11:42:00,
2013-03-26 03:51:00,6.0,2.0,-100.00,West,281,5.0,8.0,83,0.00,,,0.00,0.000000,,2013-03-26 11:51:00,
2013-03-26 04:21:00,7.0,3.0,-100.00,West,269,4.0,6.0,84,0.00,,,0.00,0.000000,,2013-03-26 12:21:00,
2013-03-26 04:32:00,7.0,3.0,-100.00,West,269,4.0,6.0,84,0.00,,,0.00,0.000000,,2013-03-26 12:32:00,
2013-03-26 04:42:00,7.0,3.0,-100.00,West,269,4.0,6.0,84,0.00,,,0.00,0.000000,,2013-03-26 12:42:00,
2013-03-26 04:52:00,7.0,3.0,-100.00,West,269,4.0,6.0,84,0.00,,,0.00,0.000000,,2013-03-26 12:52:00,
2013-03-26 05:22:00,7.0,4.0,-100.00,West,280,3.0,5.0,88,0.00,,,0.00,0.000000,,2013-03-26 13:22:00,
2013-03-26 05:32:00,7.0,4.0,-100.00,West,280,3.0,5.0,88,0.00,,,0.00,0.000000,,2013-03-26 13:32:00,
2013-03-26 05:42:00,7.0,4.0,-100.00,West,280,3.0,5.0,88,0.00,,,0.00,0.000000,,2013-03-26 13:42:00,
2013-03-26 05:52:00,7.0,4.0,-100.00,West,280,3.0,5.0,88,0.00,,,0.00,0.000000,,2013-03-26 13:52:00,
2013-03-26 06:11:00,7.0,4.0,-100.00,West,270,5.0,8.0,87,0.00,,,0.00,0.000000,,2013-03-26 14:11:00,
2013-03-26 06:22:00,7.0,4.0,-100.00,West,270,5.0,8.0,87,0.00,,,0.00,0.000000,,2013-03-26 14:22:00,
2013-03-26 06:32:00,7.0,4.0,-100.00,West,270,5.0,8.0,87,0.00,,,0.00,0.000000,,2013-03-26 14:32:00,
2013-03-26 06:42:00,7.0,4.0,-100.00,West,270,5.0,8.0,87,0.00,,,0.00,0.000000,,2013-03-26 14:42:00,
2013-03-26 06:51:00,7.0,4.0,-100.00,West,270,5.0,8.0,87,0.00,,,0.00,0.000000,,2013-03-26 14:51:00,
2013-03-26 07:22:00,6.0,2.0,-100.00,WNW,289,3.0,6.0,85,0.00,,,0.00,0.000000,,2013-03-26 15:22:00,
2013-03-26 07:33:00,6.0,2.0,-100.00,WNW,289,3.0,6.0,85,0.00,,,0.00,0.000000,,2013-03-26 15:33:00,
2013-03-26 07:42:00,6.0,2.0,-100.00,WNW,289,3.0,6.0,85,0.00,,,0.00,0.000000,,2013-03-26 15:42:00,
2013-03-26 07:52:00,6.0,2.0,-100.00,WNW,289,3.0,6.0,85,0.00,,,0.00,0.000000,,2013-03-26 15:52:00,
2013-03-26 08:12:00,5.0,2.0,-100.00,SW,223,2.0,4.0,88,0.00,,,0.00,1.000000,,2013-03-26 16:12:00,
2013-03-26 08:22:00,5.0,2.0,-100.00,SW,223,2.0,4.0,88,0.00,,,0.00,1.000000,,2013-03-26 16:22:00,
2013-03-26 08:32:00,5.0,2.0,-100.00,SW,223,2.0,4.0,88,0.00,,,0.00,1.000000,,2013-03-26 16:32:00,
2013-03-26 08:42:00,5.0,2.0,-100.00,SW,223,2.0,4.0,88,0.00,,,0.00,1.000000,,2013-03-26 16:42:00,
2013-03-26 08:53:00,5.0,2.0,-100.00,SW,223,2.0,4.0,88,0.00,,,0.00,1.000000,,2013-03-26 16:53:00,
2013-03-26 09:22:00,10.0,6.0,-100.00,West,279,1.0,4.0,85,0.00,,,0.00,17.000000,,2013-03-26 17:22:00,
2013-03-26 09:32:00,10.0,6.0,-100.00,West,279,1.0,4.0,85,0.00,,,0.00,17.000000,,2013-03-26 17:32:00,
2013-03-26 09:42:00,10.0,6.0,-100.00,West,279,1.0,4.0,85,0.00,,,0.00,17.000000,,2013-03-26 17:42:00,
2013-03-26 09:52:00,10.0,6.0,-100.00,West,279,1.0,4.0,85,0.00,,,0.00,17.000000,,2013-03-26 17:52:00,
2013-03-26 10:23:00,13.0,6.0,-100.00,East,95,2.0,4.0,72,0.00,,,0.00,93.000000,,2013-03-26 18:23:00,
2013-03-26 10:33:00,13.0,6.0,-100.00,East,95,2.0,4.0,72,0.00,,,0.00,93.000000,,2013-03-26 18:33:00,
2013-03-26 10:42:00,13.0,6.0,-100.00,East,95,2.0,4.0,72,0.00,,,0.00,93.000000,,2013-03-26 18:42:00,
2013-03-26 10:52:00,13.0,6.0,-100.00,East,95,2.0,4.0,72,0.00,,,0.00,93.000000,,2013-03-26 18:52:00,
2013-03-26 11:22:00,19.0,10.0,-100.00,East,93,2.0,6.0,66,0.00,,,0.00,228.000000,,2013-03-26 19:22:00,
2013-03-26 11:42:00,19.0,10.0,-100.00,East,93,2.0,6.0,66,0.00,,,0.00,228.000000,,2013-03-26 19:42:00,
2013-03-26 11:52:00,19.0,10.0,-100.00,East,93,2.0,6.0,66,0.00,,,0.00,228.000000,,2013-03-26 19:52:00,
2013-03-26 12:22:00,21.0,9.0,-100.00,SE,140,4.0,9.0,60,0.00,,,0.00,530.000000,,2013-03-26 20:22:00,
2013-03-26 12:32:00,21.0,9.0,-100.00,SE,140,4.0,9.0,60,0.00,,,0.00,530.000000,,2013-03-26 20:32:00,
2013-03-26 12:42:00,21.0,9.0,-100.00,SE,140,4.0,9.0,60,0.00,,,0.00,530.000000,,2013-03-26 20:42:00,
2013-03-26 12:52:00,21.0,9.0,-100.00,SE,140,4.0,9.0,60,0.00,,,0.00,530.000000,,2013-03-26 20:52:00,
2013-03-26 13:22:00,21.0,8.0,-100.00,WNW,285,3.0,7.0,57,0.00,,,0.00,465.000000,,2013-03-26 21:22:00,
2013-03-26 13:32:00,21.0,8.0,-100.00,WNW,285,3.0,7.0,57,0.00,,,0.00,465.000000,,2013-03-26 21:32:00,
2013-03-26 13:42:00,21.0,8.0,-100.00,WNW,285,3.0,7.0,57,0.00,,,0.00,465.000000,,2013-03-26 21:42:00,
2013-03-26 13:52:00,21.0,8.0,-100.00,WNW,285,3.0,7.0,57,0.00,,,0.00,465.000000,,2013-03-26 21:52:00,
2013-03-26 14:22:00,20.0,10.0,-100.00,South,177,5.0,10.0,65,0.00,,,0.00,430.000000,,2013-03-26 22:22:00,
2013-03-26 14:33:00,20.0,10.0,-100.00,South,177,5.0,10.0,65,0.00,,,0.00,430.000000,,2013-03-26 22:33:00,
2013-03-26 14:42:00,20.0,10.0,-100.00,South,177,5.0,10.0,65,0.00,,,0.00,430.000000,,2013-03-26 22:42:00,
2013-03-26 14:52:00,20.0,10.0,-100.00,South,177,5.0,10.0,65,0.00,,,0.00,430.000000,,2013-03-26 22:52:00,
2013-03-26 15:10:00,18.0,13.0,-100.00,WSW,239,1.0,9.0,79,0.00,,,0.00,220.000000,,2013-03-26 23:10:00,
2013-03-26 15:22:00,18.0,13.0,-100.00,WSW,239,1.0,9.0,79,0.00,,,0.00,220.000000,,2013-03-26 23:22:00,
2013-03-26 15:31:00,18.0,13.0,-100.00,WSW,239,1.0,9.0,79,0.00,,,0.00,220.000000,,2013-03-26 23:31:00,
2013-03-26 15:42:00,18.0,13.0,-100.00,WSW,239,1.0,9.0,79,0.00,,,0.00,220.000000,,2013-03-26 23:42:00,
2013-03-26 15:51:00,18.0,13.0,-100.00,WSW,239,1.0,9.0,79,0.00,,,0.00,220.000000,,2013-03-26 23:51:00,
2013-03-26 16:12:00,17.0,12.0,-100.00,SSE,160,6.0,11.0,79,0.00,,,0.00,155.000000,,2013-03-27 00:12:00,
2013-03-26 16:22:00,17.0,12.0,-100.00,SSE,160,6.0,11.0,79,0.00,,,0.00,155.000000,,2013-03-27 00:22:00,
2013-03-26 16:32:00,17.0,12.0,-100.00,SSE,160,6.0,11.0,79,0.00,,,0.00,155.000000,,2013-03-27 00:32:00,
2013-03-26 16:42:00,17.0,12.0,-100.00,SSE,160,6.0,11.0,79,0.00,,,0.00,155.000000,,2013-03-27 00:42:00,
2013-03-26 16:52:00,17.0,12.0,-100.00,SSE,160,6.0,11.0,79,0.00,,,0.00,155.000000,,2013-03-27 00:52:00,
2013-03-26 17:12:00,17.0,12.0,-100.00,SSE,159,7.0,12.0,79,0.00,,,0.00,135.000000,,2013-03-27 01:12:00,
2013-03-26 17:22:00,17.0,12.0,-100.00,SSE,159,7.0,12.0,79,0.00,,,0.00,135.000000,,2013-03-27 01:22:00,
2013-03-26 17:32:00,17.0,12.0,-100.00,SSE,159,7.0,12.0,79,0.00,,,0.00,135.000000,,2013-03-27 01:32:00,
2013-03-26 17:42:00,17.0,12.0,-100.00,SSE,159,7.0,12.0,79,0.00,,,0.00,135.000000,,2013-03-27 01:42:00,
2013-03-26 17:52:00,17.0,12.0,-100.00,SSE,159,7.0,12.0,79,0.00,,,0.00,135.000000,,2013-03-27 01:52:00,
2013-03-26 18:12:00,18.0,14.0,-100.00,SSE,168,7.0,12.0,84,0.00,,,0.00,141.000000,,2013-03-27 02:12:00,
2013-03-26 18:22:00,18.0,14.0,-100.00,SSE,168,7.0,12.0,84,0.00,,,0.00,141.000000,,2013-03-27 02:22:00,
2013-03-26 18:32:00,18.0,14.0,-100.00,SSE,168,7.0,12.0,84,0.00,,,0.00,141.000000,,2013-03-27 02:32:00,
2013-03-26 18:42:00,18.0,14.0,-100.00,SSE,168,7.0,12.0,84,0.00,,,0.00,141.000000,,2013-03-27 02:42:00,
2013-03-26 18:52:00,18.0,14.0,-100.00,SSE,168,7.0,12.0,84,0.00,,,0.00,141.000000,,2013-03-27 02:52:00,
2013-03-26 19:22:00,17.0,14.0,-100.00,South,169,6.0,11.0,86,0.00,,,0.00,99.000000,,2013-03-27 03:22:00,
2013-03-26 19:33:00,17.0,14.0,-100.00,South,169,6.0,11.0,86,0.00,,,0.00,99.000000,,2013-03-27 03:33:00,
2013-03-26 19:42:00,17.0,14.0,-100.00,South,169,6.0,11.0,86,0.00,,,0.00,99.000000,,2013-03-27 03:42:00,
2013-03-26 19:52:00,17.0,14.0,-100.00,South,169,6.0,11.0,86,0.00,,,0.00,99.000000,,2013-03-27 03:52:00,
2013-03-26 20:23:00,15.0,12.0,-100.00,SW,228,1.0,9.0,87,0.00,,,0.00,46.000000,,2013-03-27 04:23:00,
2013-03-26 20:33:00,15.0,12.0,-100.00,SW,228,1.0,9.0,87,0.00,,,0.00,46.000000,,2013-03-27 04:33:00,
2013-03-26 20:42:00,15.0,12.0,-100.00,SW,228,1.0,9.0,87,0.00,,,0.00,46.000000,,2013-03-27 04:42:00,
2013-03-26 20:52:00,15.0,12.0,-100.00,SW,228,1.0,9.0,87,0.00,,,0.00,46.000000,,2013-03-27 04:52:00,
2013-03-26 21:12:00,10.0,7.0,-100.00,West,279,3.0,4.0,88,0.00,,,0.00,10.000000,,2013-03-27 05:12:00,
2013-03-26 21:22:00,10.0,7.0,-100.00,West,279,3.0,4.0,88,0.00,,,0.00,10.000000,,2013-03-27 05:22:00,
2013-03-26 21:32:00,10.0,7.0,-100.00,West,279,3.0,4.0,88,0.00,,,0.00,10.000000,,2013-03-27 05:32:00,
2013-03-26 21:42:00,10.0,7.0,-100.00,West,279,3.0,4.0,88,0.00,,,0.00,10.000000,,2013-03-27 05:42:00,
2013-03-26 21:52:00,10.0,7.0,-100.00,West,279,3.0,4.0,88,0.00,,,0.00,10.000000,,2013-03-27 05:52:00,
2013-03-26 22:12:00,12.0,9.0,-100.00,West,266,2.0,4.0,89,0.00,,,0.00,0.000000,,2013-03-27 06:12:00,
2013-03-26 22:22:00,12.0,9.0,-100.00,West,266,2.0,4.0,89,0.00,,,0.00,0.000000,,2013-03-27 06:22:00,
2013-03-26 22:32:00,12.0,9.0,-100.00,West,266,2.0,4.0,89,0.00,,,0.00,0.000000,,2013-03-27 06:32:00,
2013-03-26 22:42:00,12.0,9.0,-100.00,West,266,2.0,4.0,89,0.00,,,0.00,0.000000,,2013-03-27 06:42:00,
2013-03-26 22:52:00,12.0,9.0,-100.00,West,266,2.0,4.0,89,0.00,,,0.00,0.000000,,2013-03-27 06:52:00,
2013-03-26 23:12:00,13.0,11.0,-100.00,West,273,1.0,3.0,91,0.00,,,0.00,0.000000,,2013-03-27 07:12:00,
2013-03-26 23:22:00,13.0,11.0,-100.00,West,273,1.0,3.0,91,0.00,,,0.00,0.000000,,2013-03-27 07:22:00,
2013-03-26 23:32:00,13.0,11.0,-100.00,West,273,1.0,3.0,91,0.00,,,0.00,0.000000,,2013-03-27 07:32:00,
2013-03-26 23:42:00,13.0,11.0,-100.00,West,273,1.0,3.0,91,0.00,,,0.00,0.000000,,2013-03-27 07:42:00,
2013-03-26 23:53:00,13.0,11.0,-100.00,West,273,1.0,3.0,91,0.00,,,0.00,0.000000,,2013-03-27 07:53:00,